Regional Weather Roundup
Issued by NWS Burlington, VT

Home | Current Version | Previous Version | Text Only | Print | Product List | Glossary On
Versions: 1 2 3 4 5 6 7 8 9 10 11 12 13 14 15 16 17 18 19 20 21 22 23 24 25 26 27 28 29 30 31 32 33 34 35 36 37 38 39 40 41 42 43 44 45 46 47 48 49 50
000
ASUS41 KBTV 170030
RWRBTV
VERMONT REGIONAL WEATHER ROUNDUP
NATIONAL WEATHER SERVICE BURLINGTON VT
800 PM EDT MON OCT 16 2017

NOTE: "FAIR" INDICATES FEW OR NO CLOUDS BELOW 12,000 FEET WITH NO
SIGNIFICANT WEATHER AND/OR OBSTRUCTIONS TO VISIBILITY.

* THESE REPORTS ARE NOT UNDER NWS QUALITY CONTROL AND/OR DO NOT
  REPORT WEATHER SUCH AS PRECIPITATION AND FOG.

VTZ001>019-170100-
_____VERMONT_____


CITY           SKY/WX    TMP DP  RH WIND       PRES   REMARKS
BURLINGTON     CLOUDY    46  33  60 NW13      30.16R
6HR MIN TEMP:  46; 6HR MAX TEMP:  47; 6HR PCP: TRACE;

MONTPELIER     CLOUDY    40  34  79 NW6       30.16R
6HR MIN TEMP:  40; 6HR MAX TEMP:  42;

MORRISVILLE    CLOUDY    40  36  86 CALM      30.15R
6HR MIN TEMP:  39; 6HR MAX TEMP:  43;

ST. JOHNSBURY*   N/A     42  34  73 MISG      30.11S
6HR MIN TEMP:  42; 6HR MAX TEMP:  45;

LYNDONVILLE*   CLOUDY    39  31  72 CALM      30.13S
6HR MIN TEMP:  39; 6HR MAX TEMP:  41;

MIDDLEBURY*    CLOUDY    42  34  73 NW3       30.17R
6HR MIN TEMP:  42; 6HR MAX TEMP:  48;

RUTLAND*       CLOUDY    43  32  65 NW7       30.15R
6HR MIN TEMP:  43; 6HR MAX TEMP:  47; 6HR PCP: TRACE;

SPRINGFIELD    CLOUDY    44  30  57 VRB6      30.14R
6HR MIN TEMP:  44; 6HR MAX TEMP:  50;

HIGHGATE*      CLOUDY    42  35  74 W3        30.16S
6HR MIN TEMP:  42; 6HR MAX TEMP:  44;

NEWPORT*       CLOUDY    39  32  76 W5        30.14R
6HR MIN TEMP:  39; 6HR MAX TEMP:  40;

BENNINGTON     CLOUDY    45  35  68 NW6       30.14R
6HR MIN TEMP:  45; 6HR MAX TEMP:  51; 6HR PCP: TRACE;

SUTTON*          N/A     37 N/A N/A MISG        N/A
ISLAND POND*     N/A     37 N/A N/A CALM        N/A
GALLUP MILLS*    N/A     36 N/A N/A MISG        N/A
UNION VILLAGE*   N/A     37 N/A N/A MISG        N/A
MT. MANSFIELD*   N/A     28 N/A N/A W29G43      N/A  WCI  13

_____LAKE CHAMPLAIN_____


CITY           SKY/WX    TMP DP  RH WIND       PRES   REMARKS
BURTON ISLAND*   N/A     46  37  71 NW15        N/A
COLCHESTER RF*   N/A     46  36  66 NW17        N/A
DIAMOND ISL*     N/A     45  34  65 NW7G16      N/A

$$

NYZ007-026>031-035-052-083-087-170100-
_____NORTHERN NEW YORK_____


CITY           SKY/WX    TMP DP  RH WIND       PRES   REMARKS
PLATTSBURGH    CLOUDY    44  31  60 W7        30.17R
6HR MIN TEMP:  43; 6HR MAX TEMP:  47;

SARANAC LAKE   MOCLDY    36  29  75 VRB5      30.14R
6HR MIN TEMP:  36; 6HR MAX TEMP:  38; 6HR PCP:  0.01;

MASSENA        CLOUDY    43  33  68 W7        30.21R
6HR MIN TEMP:  42; 6HR MAX TEMP:  47;

OGDENSBURG*    FAIR      40  32  74 W6        30.22R
6HR MIN TEMP:  40; 6HR MAX TEMP:  49;

STARK FALLS*     N/A     36 N/A N/A NW3         N/A
WATERTOWN      CLEAR     37  35  92 CALM      30.23R
6HR MIN TEMP:  37; 6HR MAX TEMP:  48;

FT DRUM        CLEAR     39  31  73 NW5       30.21R
6HR MIN TEMP:  39; 6HR MAX TEMP:  46; 6HR PCP: TRACE;

ALBANY         PTCLDY    46  34  62 NW8       30.17R
6HR MIN TEMP:  46; 6HR MAX TEMP:  54;

GLENS FALLS    CLOUDY    45  31  58 N6        30.17R
6HR MIN TEMP:  45; 6HR MAX TEMP:  55;


$$
NHZ002-005-011-170100-
_____NEW HAMPSHIRE_____


CITY           SKY/WX    TMP DP  RH WIND       PRES   REMARKS
LEBANON        CLOUDY    45  31  58 N7        30.12R
6HR MIN TEMP:  45; 6HR MAX TEMP:  50;

KEENE          MOCLDY    45  34  65 N14       30.12R
6HR MIN TEMP:  44; 6HR MAX TEMP:  53;

MT WASHINGTON  FOG       19  19 100 W33G39      N/A  VSB 1/16WCI   0
6HR MIN TEMP:  19; 6HR MAX TEMP:  27;

PLYMOUTH       FAIR      42  31  67 NW6       30.11S
6HR MIN TEMP:  42; 6HR MAX TEMP:  49;

WHITEFIELD     CLOUDY    41  32  70 CALM      30.11F
6HR MIN TEMP:  41; 6HR MAX TEMP:  44;


$$

_____REGIONAL QUEBEC LOCATIONS_____


CITY           SKY/WX    TMP DP  RH WIND       PRES   REMARKS
MONTREAL       MOCLDY    43  32  65 W7        30.16R
QUEBEC CITY    PTCLDY    36  28  75 NW8       30.10S WCI  29
SHERBROOKE     CLOUDY    37  34  87 SW5       30.10S

_____REGIONAL ONTARIO LOCATIONS_____


CITY           SKY/WX    TMP DP  RH WIND       PRES   REMARKS
OTTAWA         PTCLDY    36  30  80 W6        30.21R WCI  31

______KEY______
VSB  - VISIBILITY IN MILES
WCI  - WIND CHILL INDEX
HX   - HEAT INDEX
$$
NNNN



USA.gov is the U.S. government's official web portal to all federal, state and local government web resources and services.